Theta_e
296 296 296 296 296 296 295 293 292 292 291 290 290 289 288 288 287 287 287 286 286 286 286 286 286 286 287 285 285 285 284 284 284 284 284 285 284 284 285 283 283 283
296 296 297 296 295 294 294 294 293 292 291 290 290 289 288 287 287 287 286 286 286 285 285 285 285 285 284 284 284 284 283 283 283 284 283 283 283 283 283 282 281 280
296 295 295 295 295 294 294 293 293 292 291 291 290 289 288 287 286 285 285 285 284 284 284 284 284 284 284 283 283 284 283 282 282 282 283 281 281 281 280 280 279 279
296 296 296 295 295 294 293 293 292 291 290 290 289 288 288 287 286 285 285 286 284 283 283 283 283 283 283 283 283 282 282 282 282 282 281 281 281 280 279 279 279 278
296 295 295 295 295 294 293 292 292 291 290 290 289 288 287 286 285 285 284 284 283 283 283 283 282 282 283 282 282 281 281 281 280 281 280 279 279 280 279 279 277 277
295 295 295 295 294 293 292 292 292 291 290 289 288 288 287 286 285 285 284 283 283 283 282 282 282 282 282 282 281 281 281 280 280 280 280 279 279 279 279 278 277 276
294 293 293 293 293 293 293 292 291 291 290 289 288 287 286 285 285 285 284 284 283 283 282 282 282 281 281 281 281 280 280 280 279 279 279 279 279 278 278 277 277 276
294 293 293 292 292 292 292 291 290 290 289 288 287 287 286 285 285 284 284 283 282 282 281 281 281 281 281 281 281 280 279 280 279 279 279 278 278 277 277 277 276 276
292 291 291 291 291 291 291 290 289 289 288 288 287 286 285 285 284 284 283 283 282 282 281 281 281 281 281 281 281 280 279 279 279 279 279 278 278 277 276 276 276 276
291 291 290 290 290 291 290 289 288 288 287 287 287 286 285 285 284 284 283 283 282 281 281 281 281 281 280 280 280 280 279 278 278 278 279 278 278 277 276 276 276 275
290 290 290 290 290 290 289 288 287 287 287 287 286 285 285 284 284 283 283 283 282 281 280 280 280 280 280 280 280 279 278 278 278 278 278 277 277 276 278 276 276 275
290 289 289 290 290 289 289 288 287 287 286 287 286 285 284 284 283 283 283 282 282 281 280 280 280 280 280 279 279 278 278 277 277 277 277 277 276 276 276 276 275 275
289 289 290 290 290 289 288 287 286 286 286 286 285 285 284 283 283 282 282 282 281 280 280 280 280 280 279 279 278 277 277 277 277 277 276 276 275 275 275 275 275 275
289 290 289 289 288 287 286 285 285 284 284 284 283 283 283 283 282 282 282 282 281 280 280 280 279 279 279 279 278 277 277 277 277 276 276 275 275 275 275 275 275 274
289 288 287 286 286 285 284 284 283 283 283 283 283 283 283 283 282 282 281 281 280 280 279 279 279 279 279 278 277 277 277 277 276 276 275 274 274 274 274 274 274 274
288 287 286 285 284 284 283 283 283 283 283 282 282 283 282 282 281 281 281 281 280 279 279 279 279 279 281 282 281 278 277 277 276 275 275 274 274 273 273 273 274 274
286 285 284 284 284 284 283 283 282 282 282 281 281 281 281 281 281 280 280 281 280 279 278 279 279 279 283 283 283 282 278 276 276 275 275 274 274 273 273 273 274 275
286 285 284 284 283 283 283 282 281 281 281 281 281 280 280 280 280 280 280 280 280 279 278 278 278 281 284 284 284 283 281 277 275 275 274 274 274 273 273 273 274 274
285 284 284 283 283 283 282 281 280 280 280 280 280 280 279 279 280 280 279 279 279 279 278 278 278 282 284 285 284 283 282 278 275 275 274 273 273 273 273 273 274 274
285 284 284 284 283 282 281 280 280 280 280 280 280 279 279 279 279 279 279 279 279 279 278 278 278 282 285 285 284 284 282 279 275 275 274 273 273 273 273 273 273 273
284 284 284 283 282 281 281 280 280 280 279 279 279 279 278 279 279 279 279 279 279 279 278 278 278 283 285 285 284 284 283 279 275 275 274 273 273 273 272 272 272 271
284 284 283 282 282 281 280 280 280 279 279 279 278 278 279 279 279 279 279 278 278 278 278 278 278 283 285 285 285 284 283 277 274 274 273 273 272 272 272 272 272 272
284 284 283 282 281 280 280 280 280 279 279 279 278 278 278 278 279 279 279 278 278 278 277 278 278 282 284 285 285 284 281 273 273 273 272 272 272 272 272 272 272 272
284 283 283 282 281 280 280 280 280 279 279 278 278 277 277 278 278 278 278 278 277 277 277 277 278 281 284 284 284 284 279 273 273 272 272 271 272 272 272 272 272 273
284 283 283 282 281 281 281 280 279 279 279 278 278 278 277 277 277 277 277 276 277 277 278 277 278 280 284 284 284 284 277 273 272 272 271 271 271 271 272 271 271 273
284 283 283 282 281 281 280 280 279 278 278 277 277 277 276 276 276 277 276 275 276 276 277 277 277 278 281 284 284 283 277 273 272 271 270 270 271 271 270 270 271 271
Wind_Speed
9 9 10 10 10 9 10 10 8 9 8 7 8 8 9 7 7 7 7 6 6 6 6 6 6 6 6 5 5 5 5 6 5 4 5 6 5 5 7 6 5 5
10 10 9 8 7 6 7 8 10 10 10 9 8 8 7 8 8 7 7 7 5 6 6 6 6 6 6 6 6 7 6 6 6 3 7 7 5 6 6 6 6 4
9 9 10 11 11 11 10 9 9 9 10 10 8 8 8 6 7 4 5 6 6 7 6 6 6 6 7 6 6 7 7 7 7 5 7 6 5 7 5 6 6 5
10 12 12 11 10 11 9 9 9 8 7 8 9 8 7 6 6 6 6 6 7 7 7 6 7 7 7 7 7 6 6 6 6 7 8 6 5 6 6 6 6 6
12 11 10 10 9 8 8 10 11 10 10 9 7 8 8 8 8 8 8 7 7 7 7 7 7 7 7 7 7 7 6 7 6 7 8 7 5 6 5 7 7 7
8 9 9 9 9 10 10 11 11 10 10 9 11 8 9 9 9 9 9 9 8 8 8 7 7 7 7 7 7 7 8 7 7 7 8 9 7 5 6 7 8 8
11 9 10 9 8 10 10 10 9 10 10 9 8 10 9 10 10 10 9 9 9 8 9 9 9 8 7 8 7 8 7 8 8 8 9 7 8 7 5 7 7 8
10 7 8 7 9 9 10 10 10 10 9 8 11 9 9 10 10 8 8 8 9 8 9 9 9 9 9 8 9 9 8 6 8 9 9 8 8 8 7 6 7 8
7 8 8 9 10 9 10 10 9 8 8 10 9 9 8 9 10 9 9 9 9 9 9 10 10 10 9 9 9 10 10 8 7 9 10 10 9 9 8 7 8 7
9 8 8 9 10 10 11 9 9 8 9 10 10 9 11 10 10 11 10 11 11 10 10 10 10 9 9 8 9 10 10 10 8 8 7 8 9 9 9 8 9 8
9 9 10 11 12 10 12 11 11 11 11 13 12 12 12 11 10 10 10 10 11 11 10 9 9 9 9 8 7 7 9 9 9 8 7 7 7 8 7 8 8 8
12 11 13 15 14 12 14 13 12 12 12 11 12 13 11 10 11 10 10 11 9 9 9 9 8 9 9 9 9 8 8 7 7 8 7 7 7 7 7 7 8 8
12 13 13 13 12 12 10 9 10 10 10 11 9 9 10 10 10 10 9 10 9 9 10 10 10 9 10 10 10 10 10 10 9 8 8 7 6 7 6 6 7 7
13 12 10 10 8 6 7 7 7 7 8 7 7 9 11 11 12 12 9 9 10 10 10 9 10 10 10 10 10 11 10 10 10 10 9 8 7 7 6 6 6 6
10 8 7 7 7 7 8 8 9 9 8 9 10 10 9 10 10 11 11 11 9 10 10 9 11 11 10 11 12 11 10 11 10 10 10 8 7 6 5 5 6 6
8 7 7 7 8 9 10 10 10 10 10 10 11 10 10 10 10 10 11 12 12 10 10 9 9 8 9 15 12 10 11 9 9 10 10 10 8 8 6 6 6 6
7 7 7 9 9 8 8 9 9 8 8 9 9 9 10 9 10 11 11 10 11 11 11 9 8 7 15 18 18 18 12 11 11 10 10 8 6 9 9 9 7 7
9 9 9 10 9 11 10 9 8 8 9 9 9 9 9 7 9 10 9 9 9 9 10 10 9 11 19 20 20 20 15 11 10 10 9 6 6 7 7 8 9 9
9 10 11 11 11 10 9 9 10 10 11 11 12 10 7 10 11 10 11 9 10 11 11 10 9 14 20 21 20 20 19 14 9 10 8 7 6 7 8 9 9 10
9 10 11 11 9 9 9 10 11 13 11 10 9 9 11 10 10 12 10 11 12 12 11 9 10 14 21 21 21 21 21 15 9 10 10 7 7 7 7 11 10 10
10 11 11 9 9 10 10 11 13 11 11 11 11 12 13 13 13 13 12 11 11 10 10 10 9 17 22 22 22 22 22 15 10 9 9 7 6 6 7 8 8 9
11 11 11 10 10 10 11 13 13 13 13 11 10 10 9 9 9 10 11 12 11 11 11 11 10 20 22 22 23 22 23 11 9 8 8 8 8 8 8 8 8 9
11 11 11 11 11 11 13 14 13 12 11 9 11 11 11 12 12 11 11 11 12 12 12 11 10 17 22 22 23 24 16 10 8 8 8 9 9 10 9 9 9 10
11 12 12 12 12 14 15 13 11 10 11 10 12 13 13 13 11 10 10 11 13 14 13 12 11 15 23 23 23 25 16 11 8 10 9 9 10 10 9 9 10 15
10 11 12 12 13 14 12 12 13 13 10 10 11 10 11 9 9 10 9 9 11 12 13 14 11 13 23 24 25 24 14 8 9 9 10 9 10 10 9 8 9 12
9 11 12 12 13 12 11 12 9 9 10 11 10 9 9 9 9 10 11 10 10 12 11 12 12 12 17 25 24 24 20 11 8 9 10 11 10 10 10 9 10 10
Wind_Direction
185 186 188 191 194 191 182 182 185 183 187 180 179 180 182 181 182 181 173 166 161 147 149 145 138 136 132 124 118 110 106 107 96 98 98 101 97 104 102 99 88 96
193 190 193 191 192 191 192 187 181 183 185 185 185 175 182 176 189 178 169 162 151 147 148 146 143 140 137 132 132 124 120 117 111 113 110 101 108 102 102 100 97 96
191 191 190 191 193 193 190 187 184 187 183 186 178 181 178 179 173 174 159 156 153 153 155 151 145 144 140 138 138 132 134 131 126 126 112 115 118 109 107 101 92 87
197 195 195 197 193 190 185 181 188 186 178 176 188 178 169 168 164 167 167 164 159 160 157 154 152 149 145 143 136 132 135 131 137 129 117 110 112 117 115 109 103 93
196 198 200 197 195 188 180 187 188 186 185 183 167 170 166 166 170 173 173 172 168 163 162 158 153 151 147 144 142 136 140 135 143 134 126 123 130 124 131 121 119 111
206 201 197 194 189 182 188 194 189 184 181 178 183 170 177 173 174 177 175 172 174 166 162 158 155 154 152 148 145 147 149 145 152 141 133 135 136 131 136 134 128 124
201 195 197 191 188 190 192 194 188 186 187 182 160 185 173 177 179 180 179 175 170 172 166 164 160 159 160 154 152 153 157 153 153 149 142 142 138 135 136 137 134 129
201 195 190 187 190 192 195 193 188 188 181 168 184 181 178 180 179 178 179 175 173 173 172 168 166 164 164 162 160 158 159 161 158 152 147 146 143 142 145 143 139 133
192 193 190 191 191 195 198 191 189 182 176 180 181 177 181 182 180 178 179 179 178 178 175 175 173 169 171 166 166 163 161 164 164 159 155 155 154 153 151 145 139 137
199 196 190 193 197 199 197 190 183 182 179 183 183 176 182 185 181 180 180 183 182 180 181 177 173 171 170 172 167 165 163 162 163 164 162 160 156 154 154 152 146 138
202 193 197 198 202 196 197 187 187 184 184 187 181 185 186 179 184 182 183 185 186 183 178 179 177 169 168 169 167 166 163 161 162 160 158 155 154 155 155 151 151 149
202 198 203 203 202 198 197 193 189 188 188 191 186 186 184 185 181 183 187 188 185 182 179 177 175 174 172 169 165 160 159 159 157 155 152 150 151 152 150 152 149 148
204 206 206 207 204 203 197 192 194 193 190 193 190 186 183 184 186 183 188 185 184 178 183 179 176 174 172 168 165 163 161 159 156 151 148 146 145 142 138 136 139 140
210 209 209 209 205 197 194 193 189 190 193 187 179 189 190 189 186 186 185 183 185 185 182 178 175 176 174 171 169 167 163 161 158 153 147 140 136 132 134 132 126 133
206 205 201 197 190 188 187 188 190 189 187 186 189 194 190 191 187 184 180 186 186 185 181 181 183 182 179 174 169 168 164 159 158 156 151 140 133 127 125 125 131 133
203 199 196 189 190 194 195 192 191 190 189 191 194 193 190 187 187 187 188 188 183 185 184 185 189 187 180 175 170 163 163 160 157 157 155 150 139 136 133 131 131 128
198 200 186 197 200 198 198 195 195 191 193 195 195 194 193 190 186 189 193 190 188 185 187 190 190 186 178 177 174 169 163 163 161 159 158 153 147 146 146 143 138 142
199 191 194 200 194 201 195 193 186 188 195 196 195 195 196 184 192 196 192 188 188 189 192 193 192 186 182 180 176 173 166 162 161 161 160 154 146 139 140 141 144 145
196 195 199 199 201 196 190 184 188 193 196 194 198 193 177 190 197 189 194 190 188 191 195 192 193 188 185 182 178 174 169 161 166 163 153 152 144 141 144 148 150 150
199 200 205 206 196 191 187 190 193 201 198 195 189 184 192 195 194 196 192 193 194 192 193 191 190 192 187 184 180 176 172 165 164 162 164 146 145 145 148 157 156 154
199 202 206 200 193 191 192 196 200 201 195 194 192 193 194 196 195 195 196 194 192 189 189 192 194 192 190 186 182 178 175 164 161 162 161 152 137 139 139 144 141 142
199 204 204 197 194 193 196 202 202 200 198 193 194 199 202 199 202 198 196 192 191 189 189 195 193 194 191 187 184 181 177 161 159 146 148 151 149 145 146 144 144 146
199 201 202 198 195 196 203 205 201 201 201 189 196 199 197 201 201 198 197 191 191 193 192 194 190 195 193 188 185 181 171 123 144 142 148 152 157 155 151 156 158 159
198 198 200 199 196 203 206 206 202 202 201 189 197 197 201 203 197 197 196 195 193 195 193 188 190 193 193 190 186 186 170 161 143 152 151 151 154 159 162 162 165 162
197 198 202 200 203 208 204 202 201 200 195 190 201 201 206 195 196 196 196 195 199 195 190 190 189 192 193 194 191 189 159 155 148 151 154 158 158 158 161 160 162 167
195 199 203 203 208 206 203 206 198 190 192 192 198 199 199 193 195 199 195 196 188 192 193 192 188 192 194 194 193 186 165 161 156 152 159 156 156 160 156 164 167 168